QUETZSAT 1

Last updated on Wed Sep 09 2026 00:02:59 GMT+0000 (Coordinated Universal Time)

1 37826U 11054A 26251.33096275 -.00000262 00000+0 00000+0 0 9997 2 37826 0.0511 288.5730 0002524 259.2065 201.7523 1.00268615 50701
UTC large
Height (km)
Speed (km/s)
/
Latitude / Longitude
Inclination (degrees)
Orbital Period (minutes)
Azimuth
Elevation
Range (km)
Doppler Factor

Next 0 passes for location: London (51.5072 / 0.1276)

No passes found over London.
QUETZSAT 1